[[{"header":{"parameterUnit":"m.s-1","parameterCategory":1,"la1":30.2991,"la2":30.254,"lo1":-89.0895,"lo2":-89.0444,"dy":0.0017,"dx":0.0017,"nx":28,"ny":28,"refTime":"2023-07-24T21:00:00:Z","depth":0,"parameterNumber":2,"parameterNumberName":"U-component_of_WINDS"},"data":[0,0,0,0,0,0,0,0,0,0,0,0,0,0,0,0,0,0,0,0,0,0,0,0,0,0,0,0,0,0,0,0,0,0,0,0,0,0,0,0,0,0,0,0,0,0,0,0,0,0,0,0,0,0,0,0,0,0,-0.1746,-0.1746,0,-0.1734,-0.1734,-0.1733,-0.1798,-0.18,-0.1801,-0.1803,-0.1786,-0.1784,-0.1782,0,0,0,0,0,0,0,0,0,0,0,0,0,-0.182,-0.1819,-0.1746,-0.1746,-0.1746,-0.1734,-0.1734,-0.1733,-0.1797,-0.18,-0.1802,-0.1804,-0.1787,-0.1784,-0.1782,0,0,0,0,0,0,0,0,0,0,0,0,0,-0.1796,-0.1818,-0.1746,-0.1776,-0.1779,-0.1734,-0.1734,-0.1733,-0.1797,-0.18,-0.1802,-0.1805,-0.1788,-0.1785,-0.1781,-0.1705,0,0,-0.1771,-0.177,0,0,0,0,0,0,0,0,-0.1797,-0.1793,-0.1772,-0.1774,-0.1777,-0.177,-0.1754,-0.1724,-0.1796,-0.179,-0.1803,-0.1806,-0.1778,-0.1776,-0.1767,-0.1704,-0.1704,-0.1771,-0.1769,-0.1768,-0.1767,0,0,0,0,0,0,0,-0.1799,-0.1794,-0.1741,-0.1772,-0.1775,-0.1789,-0.1789,-0.1748,-0.1768,-0.1791,-0.1795,-0.1793,-0.178,-0.177,-0.1768,-0.1703,-0.1771,-0.1768,-0.1766,-0.1765,-0.1577,-0.1574,0,0,0,0,0,0,-0.1797,-0.1795,-0.1741,-0.1741,-0.1794,-0.1785,-0.1785,-0.1769,-0.1769,-0.1772,-0.1791,-0.1796,-0.1775,-0.1771,-0.1767,-0.1678,-0.1768,-0.1765,-0.1763,-0.158,-0.1576,-0.1573,0,0,0,0,0,0,-0.1798,-0.1792,-0.1742,-0.1769,-0.1764,-0.1781,-0.1763,-0.1768,-0.1758,-0.1769,-0.1773,-0.1778,-0.1777,-0.1772,-0.172,-0.1679,-0.1763,-0.176,-0.1583,-0.1579,-0.1574,-0.15,0,0,0,0,0,0,-0.18,-0.1792,-0.1764,-0.1768,-0.1762,-0.1697,-0.1761,-0.1765,-0.1753,-0.176,-0.1758,-0.176,-0.1779,-0.1725,-0.1717,-0.1676,-0.1758,-0.1587,-0.1581,-0.1576,-0.1506,-0.1493,-0.1482,0,0,0,0,0,-0.1803,-0.1743,-0.1763,-0.1756,-0.1728,-0.1694,-0.1691,-0.1715,-0.1749,-0.1721,-0.1728,-0.176,-0.1684,-0.1719,-0.1711,-0.1668,-0.159,-0.1583,-0.1576,-0.1511,-0.1496,-0.1482,0,0,0,0,0,0,-0.1732,-0.1744,-0.1766,-0.1706,-0.1699,-0.1705,-0.167,-0.1697,-0.1679,-0.1686,-0.1715,-0.1714,-0.1657,-0.1657,-0.1696,-0.1594,-0.1643,-0.1634,-0.1596,-0.1581,-0.157,-0.1571,-0.1755,0,0,0,0,0,-0.171,-0.1683,-0.1694,-0.1639,-0.1635,-0.1653,-0.1639,-0.1658,-0.1651,-0.1648,-0.1651,-0.1642,-0.1616,-0.1599,-0.1575,-0.1506,-0.1506,-0.1472,-0.146,-0.145,-0.1442,-0.1405,-0.139,-0.155,-0.1551,-0.1551,0,0,-0.1663,-0.1666,-0.1647,-0.1625,-0.1622,-0.1592,-0.165,-0.1615,-0.1593,-0.1642,-0.1595,-0.1596,-0.1588,-0.1527,-0.15,-0.1525,-0.1398,-0.1441,-0.1433,-0.1431,-0.1396,-0.1381,-0.1368,-0.1546,-0.1547,-0.1547,0,0,-0.1563,-0.1563,-0.1518,-0.1513,-0.1508,-0.152,-0.1509,-0.1511,-0.1515,-0.1468,-0.1504,-0.1476,-0.1431,-0.1424,-0.1414,-0.131,-0.1338,-0.1301,-0.1239,-0.1202,-0.119,-0.1179,-0.1142,-0.1128,-0.1293,-0.1293,-0.1293,0,-0.1506,-0.1463,-0.1491,-0.1454,-0.1443,-0.1487,-0.1441,-0.1434,-0.1421,-0.1412,-0.144,-0.1384,-0.1382,-0.132,-0.1294,-0.1284,-0.1272,-0.1302,-0.119,-0.1179,-0.1169,-0.1134,-0.112,-0.1288,-0.1289,-0.1289,-0.129,0,-0.1393,-0.1362,-0.1326,-0.1314,-0.1298,-0.1257,-0.1277,-0.1257,-0.1277,-0.1286,-0.1236,-0.1234,-0.1212,-0.1198,-0.1216,-0.1138,-0.1154,-0.1185,-0.1235,-0.1149,-0.1116,-0.1103,-0.1282,-0.1284,-0.1285,-0.1286,0,0,-0.1249,-0.1252,-0.1238,-0.1233,-0.123,-0.1206,-0.1166,-0.1145,-0.1128,-0.1116,-0.1083,-0.1043,-0.1072,-0.1061,-0.1079,-0.1046,-0.0964,-0.1082,-0.1082,-0.106,-0.0877,-0.0854,-0.0838,-0.0982,-0.098,-0.0978,-0.0878,0,-0.1152,-0.1086,-0.1108,-0.104,-0.1012,-0.1052,-0.1017,-0.101,-0.1017,-0.0993,-0.0999,-0.0971,-0.1011,-0.1005,-0.0975,-0.098,-0.0927,-0.0988,-0.0951,-0.0949,-0.0953,-0.0822,-0.0797,-0.0703,-0.0865,-0.0863,-0.0862,0,-0.103,-0.1015,-0.0944,-0.0946,-0.0935,-0.0903,-0.0885,-0.0862,-0.0854,-0.0861,-0.0848,-0.0872,-0.0831,-0.0881,-0.0824,-0.0864,-0.085,-0.085,-0.0847,-0.0846,-0.0901,-0.0817,-0.0674,-0.066,-0.0842,-0.0844,-0.0845,0,-0.0933,-0.0895,-0.0848,-0.0842,-0.0842,-0.0819,-0.0817,-0.0813,-0.0798,-0.0782,-0.0773,-0.0751,-0.0739,-0.0721,-0.0738,-0.0773,-0.0679,-0.073,-0.0683,-0.0682,-0.0662,-0.0663,-0.0516,-0.0651,-0.0651,-0.0652,-0.0652,0,-0.0823,-0.0778,-0.0805,-0.0776,-0.0726,-0.0752,-0.0701,-0.0704,-0.0699,-0.0671,-0.0703,-0.0675,-0.0699,-0.0672,-0.0685,-0.0636,-0.063,-0.0634,-0.0638,-0.0632,-0.0631,-0.0624,-0.0631,-0.0648,-0.0649,-0.065,-0.065,0,-0.0708,-0.0724,-0.0675,-0.0679,-0.0679,-0.0642,-0.0645,-0.0617,-0.0626,-0.0588,-0.0581,-0.0594,-0.0564,-0.0579,-0.0548,-0.0556,-0.0494,-0.0506,-0.0497,-0.05,-0.0453,-0.0457,-0.0296,-0.0276,-0.0423,-0.0422,-0.0421,0,-0.0637,-0.0603,-0.0604,-0.0588,-0.0584,-0.0557,-0.0543,-0.0566,-0.0549,-0.0538,-0.0511,-0.0485,-0.0465,-0.0415,-0.0421,-0.0397,-0.0409,-0.0354,-0.0406,-0.0401,-0.0409,-0.0412,-0.0408,-0.0344,-0.0343,-0.0341,-0.034,0,-0.0509,-0.0519,-0.0498,-0.0479,-0.0462,-0.0447,-0.0436,-0.042,-0.0443,-0.0422,-0.0393,-0.0378,-0.0346,-0.0319,-0.0298,-0.0295,-0.0321,-0.0324,-0.0312,-0.0305,-0.0302,-0.0304,-0.0469,-0.0328,-0.0329,-0.033,-0.033,-0.0331,-0.0415,-0.0387,-0.0383,-0.0358,-0.0352,-0.034,-0.0315,-0.032,-0.0297,-0.0274,-0.0288,-0.0254,-0.0245,-0.022,-0.0213,-0.0186,-0.0208,-0.019,-0.0186,-0.0181,-0.0175,-0.0305,-0.0182,-0.0182,-0.0182,-0.0183,-0.0183,0,-0.029,-0.0289,-0.0266,-0.025,-0.023,-0.0256,-0.0245,-0.0226,-0.0196,-0.0186,-0.0166,-0.0132,-0.0106,-0.0109,-0.0084,-0.0061,-0.0073,-0.0054,-0.0057,-0.0056,-0.0157,-0.017,-0.0046,-0.0046,-0.0046,-0.0046,-0.0046,-0.0046,-0.0223,-0.0177,-0.0186,-0.0137,-0.0136,-0.0104,-0.0095,-0.0084,-0.0077,-0.0037,-0.0016,-0.0019,-0.0014,0.0011,0.0034,0.0033,0.0043,0.0066,0.006,-0.0035,-0.0048,-0.0061,-0.0074,0.0069,0.0069,0.0159,0.016,0.0161]},{"header":{"parameterUnit":"m.s-1","parameterCategory":1,"la1":30.2991,"la2":30.254,"lo1":-89.0895,"lo2":-89.0444,"dy":0.0017,"dx":0.0017,"nx":28,"ny":28,"refTime":"2023-07-24T21:00:00:Z","depth":0,"parameterNumber":3,"parameterNumberName":"V-component_of_WINDS"},"data":[0,0,0,0,0,0,0,0,0,0,0,0,0,0,0,0,0,0,0,0,0,0,0,0,0,0,0,0,0,0,0,0,0,0,0,0,0,0,0,0,0,0,0,0,0,0,0,0,0,0,0,0,0,0,0,0,0,0,-1.0291,-1.0291,0,-1.03,-1.03,-1.03,-1.0281,-1.028,-1.0279,-1.0279,-1.0287,-1.0288,-1.0289,0,0,0,0,0,0,0,0,0,0,0,0,0,-1.0257,-1.0258,-1.0291,-1.0291,-1.0291,-1.03,-1.03,-1.03,-1.0281,-1.028,-1.0279,-1.0278,-1.0287,-1.0288,-1.0289,0,0,0,0,0,0,0,0,0,0,0,0,0,-1.027,-1.0258,-1.0291,-1.0282,-1.0282,-1.03,-1.03,-1.03,-1.0281,-1.028,-1.0279,-1.0278,-1.0287,-1.0288,-1.0289,-1.0316,0,0,-1.0293,-1.0293,0,0,0,0,0,0,0,0,-1.0269,-1.0271,-1.0284,-1.0283,-1.0282,-1.0288,-1.0291,-1.0305,-1.0281,-1.0281,-1.0279,-1.0278,-1.0288,-1.0289,-1.0293,-1.0316,-1.0317,-1.0293,-1.0294,-1.0294,-1.0295,0,0,0,0,0,0,0,-1.0268,-1.027,-1.0294,-1.0284,-1.0283,-1.0278,-1.0279,-1.0294,-1.029,-1.0281,-1.028,-1.0281,-1.0288,-1.0292,-1.0293,-1.0317,-1.0293,-1.0294,-1.0295,-1.0295,-1.0364,-1.0365,0,0,0,0,0,0,-1.0268,-1.027,-1.0294,-1.0295,-1.0273,-1.028,-1.0281,-1.0287,-1.029,-1.0289,-1.0282,-1.028,-1.029,-1.0292,-1.0293,-1.0326,-1.0294,-1.0295,-1.0296,-1.0363,-1.0364,-1.0366,0,0,0,0,0,0,-1.0268,-1.0271,-1.0294,-1.0282,-1.0285,-1.0281,-1.0289,-1.0288,-1.0292,-1.029,-1.0289,-1.0287,-1.029,-1.0292,-1.0311,-1.0326,-1.0296,-1.0297,-1.0362,-1.0364,-1.0365,-1.0391,0,0,0,0,0,0,-1.0267,-1.0271,-1.028,-1.0282,-1.0285,-1.0311,-1.029,-1.0289,-1.0294,-1.0292,-1.0295,-1.0294,-1.0289,-1.0309,-1.0312,-1.0327,-1.0298,-1.036,-1.0363,-1.0364,-1.0389,-1.0393,-1.0397,0,0,0,0,0,-1.0266,-1.0287,-1.0281,-1.0284,-1.0297,-1.0312,-1.0314,-1.0307,-1.0296,-1.0306,-1.0305,-1.0294,-1.0324,-1.0311,-1.0314,-1.033,-1.0359,-1.0362,-1.0364,-1.0387,-1.0392,-1.0397,0,0,0,0,0,0,-1.0286,-1.0287,-1.028,-1.0302,-1.0307,-1.0308,-1.0321,-1.0313,-1.0321,-1.0319,-1.031,-1.0311,-1.0332,-1.0333,-1.0319,-1.0357,-1.034,-1.0343,-1.0356,-1.0361,-1.0365,-1.0365,-1.0299,0,0,0,0,0,-1.0293,-1.0305,-1.0305,-1.0324,-1.0327,-1.0324,-1.033,-1.0325,-1.0329,-1.0331,-1.0332,-1.0336,-1.0347,-1.0354,-1.0363,-1.0389,-1.039,-1.0401,-1.0406,-1.0409,-1.0412,-1.0427,-1.0433,-1.0374,-1.0374,-1.0374,0,0,-1.0307,-1.0309,-1.0317,-1.0328,-1.0332,-1.0344,-1.0325,-1.0339,-1.0349,-1.0333,-1.0352,-1.0352,-1.0357,-1.038,-1.039,-1.0382,-1.0429,-1.0412,-1.0415,-1.0416,-1.043,-1.0436,-1.0441,-1.0375,-1.0375,-1.0375,0,0,-1.0341,-1.0343,-1.036,-1.0365,-1.037,-1.0368,-1.0372,-1.0375,-1.0375,-1.0394,-1.0383,-1.0394,-1.0412,-1.0417,-1.0421,-1.0459,-1.045,-1.0462,-1.0484,-1.0499,-1.0504,-1.0508,-1.0523,-1.0528,-1.0465,-1.0465,-1.0465,0,-1.0358,-1.0377,-1.037,-1.0386,-1.0392,-1.0379,-1.0397,-1.0401,-1.0409,-1.0414,-1.0404,-1.0428,-1.043,-1.0455,-1.0464,-1.0468,-1.0473,-1.0462,-1.0504,-1.0508,-1.0511,-1.0525,-1.0531,-1.0467,-1.0466,-1.0466,-1.0466,0,-1.0399,-1.0412,-1.0425,-1.0435,-1.0442,-1.0459,-1.0455,-1.0464,-1.0459,-1.0458,-1.0478,-1.0481,-1.0491,-1.0497,-1.0491,-1.0521,-1.0516,-1.0505,-1.0487,-1.0519,-1.0532,-1.0537,-1.0469,-1.0468,-1.0468,-1.0467,0,0,-1.0444,-1.0451,-1.0456,-1.0461,-1.0467,-1.0477,-1.0494,-1.0505,-1.0513,-1.0519,-1.0534,-1.055,-1.0541,-1.0546,-1.0541,-1.0554,-1.0586,-1.0542,-1.0542,-1.0551,-1.0621,-1.0629,-1.0636,-1.058,-1.0581,-1.0582,-1.0621,0,-1.0478,-1.0507,-1.0502,-1.053,-1.0543,-1.0533,-1.0547,-1.0553,-1.0553,-1.0565,-1.0564,-1.0577,-1.0563,-1.0567,-1.0579,-1.0579,-1.06,-1.0576,-1.0594,-1.0595,-1.0594,-1.0642,-1.0651,-1.0687,-1.0626,-1.0626,-1.0627,0,-1.0521,-1.053,-1.056,-1.0566,-1.0571,-1.0584,-1.0595,-1.0606,-1.0613,-1.0612,-1.0619,-1.0613,-1.063,-1.0612,-1.0637,-1.0621,-1.0628,-1.063,-1.0631,-1.0633,-1.0613,-1.0646,-1.0699,-1.0705,-1.0635,-1.0634,-1.0634,0,-1.0552,-1.0572,-1.0593,-1.0597,-1.0604,-1.0614,-1.0618,-1.0623,-1.0631,-1.0641,-1.0646,-1.0657,-1.0663,-1.0672,-1.0669,-1.0657,-1.0695,-1.0677,-1.0696,-1.0696,-1.0704,-1.0704,-1.076,-1.0708,-1.0708,-1.0708,-1.0708,0,-1.0591,-1.061,-1.0607,-1.062,-1.0642,-1.0637,-1.0658,-1.066,-1.0666,-1.068,-1.0671,-1.0684,-1.0678,-1.0691,-1.0689,-1.0711,-1.0713,-1.0714,-1.0713,-1.0715,-1.0715,-1.072,-1.0717,-1.0709,-1.0709,-1.0709,-1.0708,0,-1.0629,-1.0628,-1.0651,-1.0656,-1.0658,-1.0674,-1.0679,-1.0691,-1.0691,-1.0709,-1.0713,-1.0713,-1.0728,-1.0726,-1.0742,-1.074,-1.0768,-1.0763,-1.0766,-1.0765,-1.0785,-1.0783,-1.0846,-1.0855,-1.0796,-1.0797,-1.0797,0,-1.0654,-1.0669,-1.0676,-1.0685,-1.069,-1.0704,-1.0712,-1.0708,-1.0717,-1.0727,-1.0739,-1.0753,-1.0765,-1.0789,-1.0791,-1.0804,-1.08,-1.0821,-1.0802,-1.0804,-1.0802,-1.0801,-1.0803,-1.0825,-1.0826,-1.0826,-1.0827,0,-1.0699,-1.0698,-1.0711,-1.0724,-1.0734,-1.0744,-1.0753,-1.076,-1.0758,-1.0769,-1.0784,-1.0793,-1.0811,-1.0826,-1.0838,-1.0842,-1.0835,-1.0833,-1.0838,-1.0841,-1.0842,-1.0843,-1.0777,-1.0832,-1.0831,-1.0831,-1.0831,-1.083,-1.0732,-1.0745,-1.0753,-1.0768,-1.0775,-1.0784,-1.0796,-1.0799,-1.0812,-1.0827,-1.0824,-1.0842,-1.085,-1.0866,-1.0871,-1.0886,-1.0878,-1.0885,-1.0887,-1.0889,-1.0892,-1.084,-1.0888,-1.0888,-1.0887,-1.0887,-1.0887,0,-1.0777,-1.0783,-1.0796,-1.081,-1.0822,-1.0814,-1.0824,-1.0835,-1.0851,-1.0859,-1.0871,-1.089,-1.0905,-1.0909,-1.0923,-1.0934,-1.0931,-1.0938,-1.0937,-1.0939,-1.0898,-1.0892,-1.094,-1.094,-1.094,-1.094,-1.094,-1.094,-1.0802,-1.0825,-1.0826,-1.0852,-1.0857,-1.0875,-1.0882,-1.0891,-1.0897,-1.0919,-1.0932,-1.0934,-1.0941,-1.0956,-1.097,-1.0971,-1.0977,-1.0985,-1.0985,-1.0946,-1.0941,-1.0936,-1.0931,-1.0986,-1.0986,-1.1025,-1.1025,-1.1025]}]]